Regional Weather Roundup
Issued by NWS

Home | Current Version | Previous Version | Text Only | Print | Product List | Glossary On
Versions: 1 2 3 4 5 6 7 8 9 10 11 12 13 14 15 16 17 18 19 20 21 22 23 24 25 26 27 28 29 30 31 32 33 34 35 36 37 38 39 40 41 42 43 44 45 46 47 48 49 50
000
ASUS43 KLSX 260807
RWRMO

WEATHER SUMMARY FOR MISSOURI
NATIONAL WEATHER SERVICE SPRINGFIELD MO
200 AM CST SUN FEB 26 2017

NOTE: "FAIR" INDICATES FEW OR NO CLOUDS BELOW 12,000 FEET WITH NO
       SIGNIFICANT WEATHER AND/OR OBSTRUCTIONS TO VISIBILITY.
       CURRENT SKY AND/OR WEATHER CONDITIONS ARE NOT AVAILABLE FOR
       CHILLICOTHE AND FARMINGTON.

MOZ001>031-035>038-043-044-053-054-260900-
...NORTHERN AND WESTERN MISSOURI...

CITY           SKY/WX    TMP DP  RH WIND       PRES   REMARKS
KANSAS CTY INT CLEAR     33  13  43 SW15      29.98R WCI  23
KANSAS C DTWN  PTCLDY    38  13  35 S15       30.00R WCI  29
LEE`S SUMMIT   CLEAR     34  13  41 S14G24    30.00S WCI  25
ST JOSEPH      PTCLDY    30  17  58 S7        29.97S WCI  23
CHILLICOTHE      N/A     31  14  49 S8        30.00F WCI  23
KIRKSVILLE     PTCLDY    29  13  51 S9        30.00F WCI  20

$$
MOZ066>068-077>081-088>096-101>105-260900-
...SOUTHWEST MISSOURI...

CITY           SKY/WX    TMP DP  RH WIND       PRES   REMARKS
SPRINGFIELD    CLEAR     27  16  63 SE9       30.07S WCI  18
JOPLIN         PTCLDY    33  17  51 SE7       30.06F WCI  27
BRANSON        MOCLDY    32  14  47 SE6       30.09S WCI  26

$$
MOZ032>034-039>042-045>050-055>058-069>072-260900-
...CENTRAL MISSOURI...

CITY           SKY/WX    TMP DP  RH WIND       PRES   REMARKS
COLUMBIA       MOCLDY    26  14  60 S10       30.05F WCI  16
JEFFERSON CITY CLEAR     23  15  71 SE7       30.09F WCI  15
ROLLA          CLEAR     26  13  57 S9        30.07S WCI  17
SEDALIA        CLEAR     33  14  45 S13       30.05S WCI  24
WHITEMAN AFB   CLEAR     27  17  67 S9        30.02F WCI  18
WARRENSBURG    CLEAR     32  16  51 S7        30.03S WCI  26
OSAGE BEACH    CLEAR     25  15  66 SE5       30.10S WCI  19

$$
MOZ051-052-059>065-260900-
...EAST CENTRAL MISSOURI...

CITY           SKY/WX    TMP DP  RH WIND       PRES   REMARKS
ST LOUIS INTL  PTCLDY    29  15  56 CALM      30.11F
SPIRIT OF STL  PTCLDY    20  16  84 CALM      30.11F
ST CHARLES     CLEAR     23  18  81 E3        30.11F

$$
MOZ072>076-082>087-097>100-106>115-260900-
...SOUTH CENTRAL AND SOUTHEAST MISSOURI...

CITY           SKY/WX    TMP DP  RH WIND       PRES   REMARKS
CAPE GIRARDEAU CLEAR     25  19  78 CALM      30.17R
FARMINGTON     CLEAR     22  18  85 CALM      30.13S
POPLAR BLUFF   CLEAR     28  24  85 CALM      30.17R
WEST PLAINS    CLEAR     31  11  43 SE5       30.11F WCI  26

$$


USA.gov is the U.S. government's official web portal to all federal, state and local government web resources and services.